Regional Weather Roundup
Issued by NWS Sterling, VA

Home | Current Version | Previous Version | Graphics & Text | Print | Product List | Glossary On
Versions: 1 2 3 4 5 6 7 8 9 10 11 12 13 14 15 16 17 18 19 20 21 22 23 24 25 26 27 28 29 30 31 32 33 34 35 36 37 38 39 40 41 42 43 44 45 46 47 48 49 50
000
ASUS41 KLWX 031510
RWRLWX

REGIONAL WEATHER ROUNDUP
NATIONAL WEATHER SERVICE BALTIMORE MD/WASHINGTON DC
1100 AM EDT SUN MAY 03 2015

Note: "FAIR" indicates few or no clouds below 12,000 feet
with no significant weather and/or obstructions to visibility.
 TC=TEMPERATURE CELSIUS

 * =Non NWS site. Station does not report precipitation (e.g. rain,
    snow, etc.), thunder, or fog.

DCZ001-MDZ009-015-VAZ040>042-051-053>054-031600-
WASHINGTON METRO

CITY           SKY/WX    TMP DP  RH WIND       PRES   REMARKS
WASHINGTON NAT MOSUNNY   77  44  30 N6        30.14R
DULLES         MOSUNNY   74  41  30 VRB5      30.14R
ANDREWS AFB    MOSUNNY   73  44  35 NW7       30.13R
FT BELVOIR     SUNNY     76  42  30 NW5       30.13S
QUANTICO       MOSUNNY   67  53  61 S5        30.15R
COLLEGE PARK*  SUNNY     73  39  29 NW6       30.12S
LEESBURG*      SUNNY     73  45  35 W3        30.14S
MANASSAS*      SUNNY     73  43  33 CALM      30.14S
GAITHERSBURG*  SUNNY     72  43  35 NW6       30.17S

$$

MDZ006>007-011-014-031600-
BALTIMORE METRO

CITY           SKY/WX    TMP DP  RH WIND       PRES   REMARKS
BWI AIRPORT    MOSUNNY   73  39  29 CALM      30.11R
MD SCIENCE CTR   N/A     73  45  36 MISG      30.12R
ANNAPOLIS      SUNNY     63  52  67 SE8       30.12R
FORT MEADE*    SUNNY     73  37  27 CALM      30.14S

$$

MDZ012-015-019>023-031600-
MARYLAND EASTERN SHORE

CITY           SKY/WX    TMP DP  RH WIND       PRES   REMARKS
OCEAN CITY     SUNNY     62  53  72 SE7       30.11R
SALISBURY      SUNNY     72  47  40 W8        30.11R
BAY BRIDGE AP*   N/A    N/A N/A N/A NW3       30.12S
CAMBRIDGE*     SUNNY     72  46  40 N6        30.11S
EASTON*        SUNNY     72  54  53 N6        30.15

$$

MDZ017>025-031600-
SOUTHERN MARYLAND

CITY           SKY/WX    TMP DP  RH WIND       PRES   REMARKS
PATUXENT RIVER MOSUNNY   71  45  39 NW8       30.12S
ST INIGOES     SUNNY     72  50  45 SW6       30.12R
LEONARDTOWN*   SUNNY     72  41  33 N3        30.14S

$$

MDZ003>005-031600-
NORTH CENTRAL MARYLAND

CITY           SKY/WX    TMP DP  RH WIND       PRES   REMARKS
FREDERICK*     SUNNY     57  28  33 W9        30.16
HAGERSTOWN APT SUNNY     69  42  37 SW7       30.14R
WESTMINSTER*   SUNNY     70  41  35 SW6       30.14R

$$

MDZ501>502-031600-
WESTERN MARYLAND

CITY           SKY/WX    TMP DP  RH WIND       PRES   REMARKS
OAKLAND*       PTSUNNY   63  37  39 W10G17    30.20R
CUMBERLAND*    SUNNY     70  45  40 CALM      30.18S

$$

VAZ025>031-031600-
SHENANDOAH VALLEY

CITY           SKY/WX    TMP DP  RH WIND       PRES   REMARKS
WINCHESTER*    MOSUNNY   72  37  28 S8        30.15S
FRONT ROYAL*   PTSUNNY   68  45  42 SW8       30.15S
LURAY*         CLOUDY    68  50  52 CALM      30.17S
NEW MARKET*    FAIR      68  47  46 CALM      30.15F
STAUNTON*      SUNNY     70  43  37 S6        30.20S
WAYNESBORO*    PTSUNNY   68  43  39 W5        30.19S

$$

WVZ021-048>050-054>055-031600-
EASTERN WEST VIRGINIA PANHANDLE

CITY           SKY/WX    TMP DP  RH WIND       PRES   REMARKS
MARTINSBURG    SUNNY     72  42  34 VRB3      30.14S
PETERSBURG*    SUNNY     65  48  53 E5        30.17F

$$

VAZ036>039-050-031600-
CENTRAL FOOTHILLS

CITY           SKY/WX    TMP DP  RH WIND       PRES   REMARKS
CHARLOTTESVILL SUNNY     72  43  35 S5        30.15S
CULPEPER*      NOT AVBL
ORANGE*        SUNNY     73  45  35 CALM      30.16S
GORDONSVILLE*  FAIR      73  43  33 CALM      30.15S
WARRENTON*     FAIR      76  44  31 CALM      30.14S

$$

VAZ055>057-031600-
NORTH AND CENTRAL PIEDMONT

CITY           SKY/WX    TMP DP  RH WIND       PRES   REMARKS
FREDERICKSBRG* SUNNY     76  43  30 CALM      30.13S
STAFFORD*      SUNNY     74  39  27 N7        30.18S

$$

NCZ024-NYZ072-PAZ021-071-VAZ022-071-031600-
OTHER REGIONAL OBSERVATIONS

CITY           SKY/WX    TMP DP  RH WIND       PRES   REMARKS
NEW YORK CITY  SUNNY     69  40  34 CALM      30.12R
PHILADELPHIA   MOSUNNY   69  45  41 CALM      30.11S
PITTSBURGH     MOSUNNY   71  42  35 W9        30.14R
ROANOKE        MOSUNNY   69  40  34 W6        30.22S
RICHMOND       MOSUNNY   77  42  28 NW6       30.15R
RALEIGH        MOSUNNY   71  51  49 VRB5      30.21R

$$

ANZ530>537-031600-
MARINE OBSERVATIONS

STATION/POSITION TIME  TEMP    WIND        PRES
                       AIR SEA DIR/SP/G
                 (UTC) (F)     (DEG/KT/KT) (MB)
THOMAS PT LIGHT  1500   60 57   90/  3/  4 1020.7R
BALT KEY BRIDGE  1400   58     130/  6/  7 1019.4S
COVE POINT       1400   63     350/ 10/ 12 1020.5R
LEWISETTA        1400   69 61              1019.7R
SOLOMONS ISLAND  1412      59                N/A
PINEY POINT      1400          320/  9/ 10   N/A

$$



USA.gov is the U.S. government's official web portal to all federal, state and local government web resources and services.